Date,TemperatureHighF,TemperatureAvgF,TemperatureLowF,DewpointHighF,DewpointAvgF,DewpointLowF,HumidityHigh,HumidityAvg,HumidityLow,PressureMaxIn,PressureMinIn,WindSpeedMaxMPH,WindSpeedAvgMPH,GustSpeedMaxMPH,PrecipitationSumIn
2013-1-1,15.8,4.4,-2.9,4.5,-1.5,-6.9,89,76,57,30.24,30.09,14,6,14,0.00
2013-1-2,27.3,15.1,-2.4,27.1,11.1,-5.4,99,84,69,30.11,29.96,14,6,14,0.00
2013-1-3,28.6,15.5,5.2,28.2,11.9,2.7,99,85,76,30.29,30.05,28,13,28,0.00
2013-1-4,34.0,19.5,7.7,23.5,15.5,5.7,97,85,67,30.21,30.10,23,9,23,0.00
2013-1-5,36.7,24.5,9.3,33.7,22.4,8.3,99,92,79,30.11,29.87,27,10,27,0.00
2013-1-6,26.8,16.4,8.6,17.9,12.5,7.2,99,85,67,30.23,29.95,29,12,29,0.00
2013-1-7,42.8,28.5,13.1,31.3,23.0,11.9,95,81,61,30.17,29.96,22,7,22,0.00
2013-1-8,43.0,32.4,17.6,34.1,28.6,17.4,99,86,70,29.98,29.83,20,8,20,0.00
2013-1-9,41.7,32.9,27.5,33.2,30.1,27.0,99,90,70,30.39,29.97,27,10,27,0.00
2013-1-10,41.4,33.3,25.9,35.9,29.3,24.7,99,87,53,30.37,29.67,19,7,19,0.09
2013-1-11,49.6,41.1,34.0,47.1,40.6,33.7,99,98,88,29.69,29.46,21,8,21,0.01
2013-1-12,48.0,26.0,15.6,44.0,19.9,7.8,99,78,65,30.02,29.49,36,19,36,0.01
2013-1-13,15.4,11.8,8.2,8.8,5.9,1.7,89,77,64,30.24,29.93,28,13,28,0.00
2013-1-14,29.8,15.7,4.8,15.1,9.0,1.6,90,76,49,30.41,30.23,17,5,17,0.00
2013-1-15,33.8,21.7,11.7,17.0,12.9,8.1,87,70,44,30.33,30.01,17,6,17,0.00
2013-1-16,43.9,30.2,17.6,38.8,24.0,11.1,98,78,64,30.10,29.79,28,14,28,0.00
2013-1-17,32.2,22.6,14.2,25.1,15.3,7.7,93,75,44,30.38,30.09,20,8,20,0.00
2013-1-18,54.3,37.2,22.3,34.9,29.0,20.6,93,75,44,30.30,29.80,34,12,34,0.06
2013-1-19,51.8,36.9,13.8,35.8,28.8,5.7,89,73,51,30.14,29.72,46,18,46,0.19
2013-1-20,14.4,10.3,7.0,9.4,4.4,-0.5,86,76,67,30.33,30.13,33,15,33,0.00
2013-1-21,10.2,2.8,-3.5,3.4,-5.5,-13.4,84,68,51,30.29,30.20,33,19,33,0.00
2013-1-22,12.9,5.4,-4.0,3.4,-3.1,-8.0,85,68,50,30.35,30.24,21,8,21,0.00
2013-1-23,29.1,16.0,4.3,13.8,5.2,-7.7,79,62,49,30.44,30.07,34,15,34,0.00
2013-1-24,20.8,10.3,0.9,7.7,-4.6,-9.8,63,51,30,30.58,30.15,17,8,17,0.00
2013-1-25,33.4,21.7,8.6,20.6,10.8,2.6,76,63,50,30.24,29.96,34,14,34,0.00
2013-1-26,33.4,18.4,0.5,14.6,6.4,-2.8,87,62,34,30.32,30.16,20,8,20,0.00
2013-1-27,36.5,31.6,28.4,36.2,27.1,14.3,99,85,55,30.16,29.71,21,6,21,0.13
2013-1-28,46.8,36.3,32.4,46.1,36.1,32.1,99,99,99,29.88,29.58,28,5,28,0.08
2013-1-29,56.3,39.8,32.9,55.7,39.5,32.7,99,99,99,29.58,29.46,30,10,30,0.09
2013-1-30,35.8,22.5,12.4,35.5,21.2,9.2,99,95,82,29.73,29.35,37,22,37,0.01
2013-1-31,15.3,4.0,-2.7,10.1,-1.4,-8.7,87,78,72,30.25,29.72,38,23,38,0.00
2013-2-1,16.9,2.1,-10.5,13.6,-4.8,-15.1,87,72,53,30.32,29.98,25,11,25,0.00
2013-2-2,23.5,16.5,9.7,20.4,12.4,6.1,99,84,69,30.09,29.91,26,8,26,0.00
2013-2-3,27.1,19.3,12.4,21.2,14.9,8.2,99,83,66,30.07,29.79,36,12,36,0.00
2013-2-4,27.0,20.5,11.1,20.6,15.8,8.2,95,82,62,29.94,29.73,21,7,21,0.00
2013-2-5,39.6,26.9,15.8,31.8,23.6,14.2,96,87,72,30.06,29.73,29,12,29,0.00
2013-2-6,39.7,28.6,12.4,34.9,26.1,12.2,99,91,72,30.10,29.89,17,6,17,0.00
2013-2-7,37.6,33.7,28.2,37.3,33.2,26.7,99,98,91,30.10,29.85,27,10,27,0.22
2013-2-8,33.4,28.9,27.1,26.7,25.6,23.5,94,88,71,30.30,30.09,22,8,22,0.00
2013-2-9,31.8,28.9,27.0,30.9,27.7,25.2,99,95,90,30.24,29.88,23,12,23,0.00
2013-2-10,45.1,36.9,31.1,44.0,35.6,29.0,99,95,76,29.89,29.24,42,16,42,0.39
2013-2-11,34.7,29.0,25.0,29.1,23.6,19.9,89,80,71,30.04,29.44,56,29,56,5.56
2013-2-12,41.5,30.8,23.4,29.1,24.3,17.1,94,77,55,30.07,29.80,28,9,28,0.00
2013-2-13,46.6,34.6,24.4,35.8,29.9,24.2,99,84,61,29.80,29.58,18,7,18,0.00
2013-2-14,42.1,34.1,23.4,33.8,29.4,9.7,99,83,56,30.06,29.58,30,16,30,0.00
2013-2-15,28.0,21.1,15.8,17.5,12.1,4.6,88,68,52,30.22,30.06,26,14,26,0.00
2013-2-16,28.4,17.2,10.2,16.9,12.1,6.2,97,80,58,30.22,30.07,17,7,17,0.00
2013-2-17,44.1,26.4,13.1,29.4,19.5,11.8,95,76,52,30.08,29.67,25,12,25,0.00
2013-2-18,46.6,30.7,12.2,35.5,25.4,4.2,99,81,59,29.76,29.48,42,18,42,10.42
2013-2-19,20.3,9.5,1.9,5.8,1.0,-4.5,86,68,53,30.27,29.76,43,28,43,13.73
2013-2-20,31.3,13.4,0.0,12.7,3.1,-5.2,80,65,35,30.37,30.24,19,7,19,0.00
2013-2-21,27.0,20.1,10.4,24.2,15.8,6.6,99,83,67,30.29,29.83,22,7,22,0.00
2013-2-22,35.2,25.7,19.0,31.4,23.8,16.5,99,92,82,29.89,29.71,24,9,24,0.07
2013-2-23,28.9,18.5,4.5,18.9,14.2,2.0,98,84,60,29.93,29.86,17,7,17,0.00
2013-2-24,44.2,19.5,-1.5,25.5,13.2,-3.6,99,79,46,30.04,29.91,9,2,9,0.00
2013-2-25,42.8,24.0,17.1,27.6,21.4,16.7,99,91,55,30.06,30.01,8,2,8,0.00
2013-2-26,34.3,31.8,30.0,31.8,29.1,25.5,99,90,75,29.86,29.60,31,11,31,0.00
2013-2-27,32.4,30.7,28.8,31.9,30.4,28.5,99,99,96,29.84,29.66,24,14,24,0.07
2013-2-28,35.8,30.3,26.1,30.3,26.5,23.9,97,86,72,30.07,29.84,22,14,22,0.00
2013-3-1,37.9,27.5,18.1,25.5,19.5,12.5,99,74,39,30.23,30.06,17,6,17,0.00
2013-3-2,28.4,14.5,2.1,16.0,9.9,0.2,98,83,54,30.24,30.13,13,7,13,0.00
2013-3-3,36.9,19.8,-0.4,19.6,11.5,-2.8,96,72,46,30.13,29.93,15,5,15,0.00
2013-3-4,36.0,28.4,23.5,28.1,24.1,17.0,99,84,70,29.97,29.80,27,11,27,0.00
2013-3-5,33.4,28.3,24.6,28.7,25.5,20.3,99,89,72,30.15,29.86,29,12,29,0.00
2013-3-6,31.1,21.9,5.0,22.6,17.2,3.3,99,83,62,30.32,30.14,26,11,26,0.00
2013-3-7,37.4,21.6,0.0,24.4,15.9,-2.2,95,80,58,30.33,30.26,11,4,11,0.00
2013-3-8,44.1,31.5,18.1,33.8,27.2,17.2,99,85,63,30.29,30.07,19,9,19,0.01
2013-3-9,41.9,36.1,34.3,38.9,35.7,33.4,99,98,90,30.08,29.64,22,10,22,1.07
2013-3-10,40.6,36.4,33.8,39.3,36.2,29.6,99,99,99,29.70,29.54,17,7,17,0.76
2013-3-11,33.8,30.3,25.2,33.6,28.7,19.9,99,94,80,29.85,29.58,23,3,23,0.00
2013-3-12,34.2,26.6,21.7,31.2,22.7,17.7,96,85,68,30.11,29.84,35,18,35,0.01
2013-3-13,32.2,23.6,16.9,21.3,17.2,11.9,96,78,47,30.34,30.10,21,12,21,0.00
2013-3-14,57.6,34.3,21.2,34.9,27.8,20.3,99,79,33,30.28,29.99,21,6,21,0.00
2013-3-15,54.5,36.8,28.9,40.6,33.9,28.7,99,90,55,29.99,29.67,12,4,12,0.00
2013-3-16,34.3,31.0,25.5,33.6,27.3,19.9,99,86,68,30.13,29.72,34,12,34,0.00
2013-3-17,39.4,29.5,21.4,28.1,21.3,14.6,86,72,54,30.13,29.83,20,10,20,0.00
2013-3-18,33.8,26.6,16.5,33.6,23.5,9.1,99,88,71,29.87,29.60,46,17,46,0.65
2013-3-19,30.2,20.0,11.8,20.9,12.2,5.5,88,71,54,30.14,29.85,33,20,33,0.00
2013-3-20,24.3,17.1,10.6,12.7,7.8,3.3,76,66,55,30.19,30.06,36,23,36,0.22
2013-3-21,35.8,20.7,5.4,15.6,9.6,2.1,90,64,37,30.07,29.95,15,5,15,0.00
2013-3-22,44.4,27.9,14.4,22.8,16.1,9.9,94,64,30,30.02,29.96,12,4,12,0.00
2013-3-23,45.9,33.6,23.0,30.0,22.2,16.3,97,66,32,30.07,29.95,14,4,14,0.00
2013-3-24,32.4,30.1,28.0,31.8,29.3,26.3,99,97,81,29.99,29.78,22,8,22,0.04
2013-3-25,37.8,30.4,25.9,28.3,25.2,20.7,99,82,61,30.14,29.85,30,14,30,0.02
2013-3-26,41.9,31.9,24.8,31.4,26.4,23.7,97,81,61,30.26,30.13,23,10,23,0.00
2013-3-27,53.8,36.7,25.2,31.2,25.8,20.8,98,69,31,30.29,30.21,12,3,12,0.00
2013-3-28,54.0,34.9,23.7,33.4,27.1,22.3,99,76,41,30.29,30.20,11,3,11,0.00
2013-3-29,61.3,43.7,27.9,37.4,32.1,26.6,97,68,32,30.25,30.10,11,3,11,0.00
2013-3-30,51.3,43.0,36.0,49.6,40.6,31.8,99,91,76,30.11,29.81,27,8,27,0.01
2013-3-31,52.9,38.0,30.6,41.4,31.8,23.7,99,80,51,29.99,29.80,34,15,34,0.01
2013-4-1,39.0,29.9,23.2,23.7,19.0,14.4,86,66,39,30.21,29.99,25,13,25,0.00
2013-4-2,43.9,31.1,18.5,24.9,19.8,14.3,99,66,36,30.30,30.20,34,9,34,0.00
2013-4-3,49.8,34.5,20.3,28.0,18.1,10.0,94,57,22,30.38,30.20,17,4,17,0.00
2013-4-4,60.6,44.2,28.9,41.2,29.6,19.7,91,58,37,30.20,29.96,23,9,23,0.00
2013-4-5,54.7,43.7,29.3,34.3,26.9,19.1,94,57,26,30.17,29.87,17,8,17,0.00
2013-4-6,66.0,51.9,42.1,53.0,38.5,24.6,97,62,45,29.88,29.51,30,16,30,0.05
2013-4-7,67.1,50.2,36.7,43.0,39.5,36.4,99,71,35,29.91,29.67,18,7,20,0.00
2013-4-8,75.6,59.9,47.5,59.2,50.4,42.3,99,75,38,29.79,29.58,21,6,21,0.72
2013-4-9,56.8,48.1,41.0,53.7,47.7,40.7,99,98,89,29.86,29.63,21,8,21,0.81
2013-4-10,42.8,38.1,35.8,42.5,37.8,35.0,99,99,99,29.99,29.63,32,8,32,1.00
2013-4-11,47.1,40.3,36.1,46.7,40.0,32.7,99,99,93,29.67,29.49,25,8,25,0.25
2013-4-12,39.7,36.0,33.4,36.6,33.4,30.1,99,90,74,29.85,29.51,28,15,28,0.01
2013-4-13,51.6,39.0,30.7,35.8,31.6,26.7,99,76,51,29.93,29.83,24,12,24,0.00
2013-4-14,73.2,51.1,37.9,56.7,44.5,34.2,99,81,44,29.86,29.40,30,11,30,0.45
2013-4-15,50.9,42.9,36.9,50.3,38.4,29.6,99,85,55,29.99,29.56,29,10,29,0.11
2013-4-16,53.2,41.7,30.9,36.6,32.9,29.9,99,73,47,30.18,29.97,21,8,21,0.00
2013-4-17,48.0,43.2,39.7,45.2,40.5,33.8,99,91,62,30.17,29.66,25,8,25,1.89
2013-4-18,50.0,41.0,34.5,49.7,40.6,33.2,99,99,95,29.55,29.35,34,16,34,0.78
2013-4-19,38.1,34.5,30.6,33.7,30.0,24.3,99,84,63,29.97,29.51,39,23,39,0.11
2013-4-20,57.6,38.5,26.1,31.8,24.6,6.8,99,65,14,30.27,29.97,14,6,14,0.00
2013-4-21,64.2,49.1,38.1,45.7,37.9,29.0,82,66,47,30.28,30.06,30,14,30,0.00
2013-4-22,66.6,55.2,47.7,53.2,45.8,41.2,99,73,40,30.14,29.87,25,10,25,0.04
2013-4-23,50.9,38.5,33.8,50.6,33.6,27.5,99,83,63,30.03,29.90,27,16,27,0.00
2013-4-24,55.2,41.5,27.7,41.9,28.8,17.0,99,67,24,30.07,29.96,30,13,30,0.04
2013-4-25,60.1,44.1,30.0,40.7,28.2,5.9,99,60,15,30.22,30.01,29,11,29,0.01
2013-4-26,70.0,57.0,43.5,49.1,41.4,31.8,93,58,37,30.17,30.07,34,14,34,0.04
2013-4-27,68.9,55.5,41.4,51.2,45.8,41.1,99,74,41,30.18,29.93,19,5,19,0.00
2013-4-28,76.5,58.7,37.4,52.0,45.1,37.1,99,67,29,29.94,29.71,25,6,25,0.00
2013-4-29,83.1,65.1,51.8,62.3,55.0,51.3,99,74,40,29.79,29.55,20,7,20,0.00
2013-4-30,89.2,74.2,60.4,63.5,53.4,36.9,95,55,19,29.83,29.53,40,16,40,0.21
2013-5-1,68.5,55.7,42.4,51.2,45.5,37.5,94,70,46,30.20,29.82,44,17,44,0.21
2013-5-2,42.3,37.0,33.1,37.8,35.6,32.7,99,95,80,30.31,30.16,34,18,34,1.04
2013-5-3,40.8,35.6,30.2,39.8,35.3,30.0,99,99,99,30.23,29.88,22,10,22,1.71
2013-5-4,70.3,55.3,39.7,61.9,53.2,39.5,99,93,68,29.99,29.84,18,5,18,0.41
2013-5-5,74.7,59.8,47.5,63.0,54.0,47.2,99,84,42,30.02,29.93,17,8,17,0.00
2013-5-6,80.8,64.1,49.8,59.4,51.8,42.3,99,70,30,30.03,29.93,13,4,13,0.00
2013-5-7,87.6,67.1,49.5,55.8,46.4,23.3,99,56,10,30.02,29.91,11,4,11,0.00
2013-5-8,80.4,63.8,48.4,63.2,53.1,41.4,99,75,26,29.96,29.88,26,5,26,0.06
2013-5-9,71.4,62.0,57.4,67.7,61.1,56.9,99,97,82,29.89,29.74,18,5,18,0.56
2013-5-10,70.2,55.6,48.7,56.9,51.8,48.3,99,88,50,29.96,29.80,19,7,19,0.08
2013-5-11,56.5,50.5,36.1,51.7,34.0,8.5,99,59,16,30.10,29.85,40,18,40,0.41
2013-5-12,60.3,46.4,31.3,33.9,27.3,14.3,97,53,19,30.17,30.05,24,10,24,0.00
2013-5-13,72.9,56.0,32.4,47.8,34.9,20.6,99,52,17,30.11,29.80,22,7,22,0.00
2013-5-14,97.0,77.1,54.7,60.6,51.7,30.3,98,49,11,29.80,29.51,33,12,33,0.01
2013-5-15,90.1,70.9,55.2,57.6,44.5,23.7,76,43,10,29.86,29.61,22,7,22,0.00
2013-5-16,87.3,71.4,53.2,59.7,48.2,33.5,91,50,16,29.88,29.76,17,4,17,0.00
2013-5-17,83.7,72.5,61.5,67.0,61.2,53.9,99,70,41,29.91,29.80,21,6,21,0.00
2013-5-18,86.7,73.5,60.4,68.8,63.0,58.4,99,73,42,29.93,29.76,24,7,24,0.00
2013-5-19,85.5,72.9,63.1,76.6,69.0,62.2,99,88,66,29.83,29.50,40,11,40,1.37
2013-5-20,81.3,70.1,60.8,67.2,63.1,59.2,99,81,49,29.64,29.51,30,12,30,0.17
2013-5-21,73.8,65.2,59.4,64.1,60.1,55.6,99,85,56,29.63,29.51,24,10,24,0.00
2013-5-22,70.0,59.5,54.9,62.2,57.8,53.8,99,94,70,29.75,29.59,25,9,25,0.12
2013-5-23,72.3,60.6,51.3,57.7,50.6,38.3,99,74,33,30.22,29.75,21,9,21,0.05
2013-5-24,71.8,57.8,42.1,51.6,43.0,31.8,99,64,25,30.36,30.16,22,6,22,0.01
2013-5-25,58.8,52.6,49.1,53.9,50.9,46.3,99,94,63,30.26,30.15,18,8,18,0.86
2013-5-26,58.3,53.1,49.5,58.0,52.8,49.2,99,99,96,30.17,29.93,27,7,27,1.35
2013-5-27,74.5,62.0,56.3,71.5,61.7,56.0,99,99,88,29.99,29.72,21,6,21,0.08
2013-5-28,80.1,68.6,61.9,75.7,67.4,60.9,99,96,77,29.75,29.61,20,7,20,0.43
2013-5-29,83.5,69.4,62.2,76.2,67.2,62.0,99,93,74,29.80,29.65,39,9,39,1.82
2013-5-30,79.7,70.4,62.8,73.5,68.3,62.5,99,93,67,29.70,29.54,34,13,34,0.05
2013-5-31,77.5,68.9,61.2,69.8,64.7,60.9,99,88,60,29.70,29.59,31,12,31,0.04
2013-6-1,72.1,65.9,61.7,67.7,61.9,55.5,99,88,63,29.79,29.56,22,10,22,0.09
2013-6-2,70.2,58.3,50.0,61.3,49.1,42.6,99,74,40,30.01,29.79,24,10,24,0.00
2013-6-3,77.9,61.9,44.4,61.6,48.2,41.6,99,66,31,30.06,29.92,14,4,14,0.00
2013-6-4,64.0,58.6,55.6,62.1,56.8,51.9,99,94,81,30.11,29.94,17,5,17,0.30
2013-6-5,68.0,61.8,54.0,67.7,61.5,53.7,99,99,92,30.00,29.86,16,4,16,0.74
2013-6-6,73.8,61.7,53.6,63.2,58.7,53.3,99,91,56,29.91,29.83,14,5,14,0.04
2013-6-7,77.4,62.2,54.5,62.5,57.4,54.0,99,86,48,29.95,29.86,11,3,11,0.00
2013-6-8,76.1,65.9,52.7,64.1,56.7,52.3,99,75,46,29.90,29.81,14,5,14,0.00
2013-6-9,74.7,67.6,59.2,67.5,62.7,57.3,99,85,70,29.81,29.68,22,9,22,0.00
2013-6-10,88.0,68.1,56.5,68.0,62.9,56.2,99,86,45,29.84,29.72,15,4,15,0.00
2013-6-11,90.9,75.2,59.2,74.2,68.2,58.9,99,82,49,29.86,29.72,13,4,13,0.00
2013-6-12,90.5,78.0,68.7,77.1,72.8,68.5,99,86,58,29.84,29.56,39,10,39,0.37
2013-6-13,85.8,73.6,62.6,69.0,62.1,50.0,99,72,33,29.99,29.73,22,7,22,0.00
2013-6-14,80.8,69.1,58.5,66.2,61.7,56.7,99,79,51,30.07,29.80,22,7,22,0.00
2013-6-15,82.2,72.6,64.8,76.5,70.4,64.5,99,93,75,29.96,29.80,24,8,24,0.17
2013-6-16,90.7,76.8,65.1,73.0,57.9,35.2,99,61,16,29.91,29.85,15,6,15,0.00
2013-6-17,93.0,78.3,60.3,65.1,53.7,41.3,99,49,18,29.93,29.82,27,6,27,0.00
2013-6-18,88.7,73.1,60.1,62.9,59.5,53.9,99,66,32,30.00,29.87,13,4,13,0.00
2013-6-19,87.8,73.5,60.4,62.8,58.8,53.5,95,63,33,30.07,29.96,18,6,18,0.00
2013-6-20,91.9,79.1,64.4,69.5,63.9,60.4,97,63,37,30.03,29.91,24,9,24,0.00
2013-6-21,87.3,77.2,64.4,77.0,71.9,64.1,99,84,67,30.04,29.82,25,10,25,0.80
2013-6-22,92.7,81.2,70.0,81.2,76.6,69.7,99,87,60,29.95,29.80,24,10,24,0.59
2013-6-23,86.0,75.9,68.7,78.8,72.4,67.6,99,90,56,29.98,29.77,34,9,36,0.17
2013-6-24,75.4,70.1,66.7,73.7,69.8,62.5,99,99,99,29.98,29.88,33,8,36,1.04
2013-6-25,89.8,77.7,67.6,80.7,74.8,67.3,99,91,61,29.83,29.68,21,7,21,0.07
2013-6-26,92.7,77.4,65.7,81.9,74.4,65.2,99,91,65,29.77,29.65,25,5,25,0.78
2013-6-27,88.0,77.9,67.8,75.2,69.7,63.4,99,78,48,29.84,29.76,28,9,28,0.00
2013-6-28,84.2,75.2,67.1,66.0,62.1,56.4,92,66,40,29.80,29.68,34,15,34,0.00
2013-6-29,75.4,67.7,63.5,70.3,65.6,62.3,99,93,71,29.84,29.66,33,11,33,0.09
2013-6-30,81.3,70.1,61.5,64.9,57.4,47.1,99,68,31,30.02,29.83,19,8,19,0.00
2013-7-1,87.6,72.0,57.2,62.2,54.8,44.3,99,61,25,30.09,30.01,19,4,19,0.00
2013-7-2,86.9,73.0,58.8,66.5,61.0,52.0,99,70,32,30.08,29.96,14,4,14,0.00
2013-7-3,88.5,72.0,58.5,62.5,57.0,41.3,99,66,22,30.04,29.94,12,3,12,0.00
2013-7-4,88.0,74.3,59.9,64.9,58.8,50.5,97,63,30,30.01,29.92,15,5,15,0.00
2013-7-5,88.9,76.0,61.9,68.0,63.4,56.6,99,69,35,29.99,29.88,21,7,21,0.00
2013-7-6,91.9,78.6,64.8,71.5,68.0,63.7,99,74,41,29.95,29.85,17,7,17,0.00
2013-7-7,92.1,80.2,67.1,73.8,70.9,66.8,99,76,47,29.91,29.83,22,8,22,0.00
2013-7-8,92.8,83.8,76.1,79.5,75.1,70.4,99,76,58,29.93,29.84,21,8,21,0.00
2013-7-9,92.3,81.7,73.0,82.8,78.1,72.6,99,90,65,29.93,29.81,22,6,22,0.32
2013-7-10,84.2,75.8,64.6,78.6,65.1,52.0,99,74,35,30.01,29.84,23,9,23,0.00
2013-7-11,87.8,73.9,58.6,67.6,61.4,53.5,99,70,36,30.09,30.00,13,3,13,0.00
2013-7-12,85.5,72.7,59.2,66.0,61.1,52.5,99,72,33,30.09,29.98,19,6,19,0.00
2013-7-13,77.4,68.3,61.2,70.4,65.4,60.9,99,91,71,30.10,30.00,16,4,16,0.00
2013-7-14,67.8,64.2,60.8,67.6,63.9,58.7,99,99,99,30.08,30.05,4,2,5,0.00
2013-7-15,93.0,79.3,64.2,78.1,72.6,63.9,99,82,55,30.20,30.11,11,3,11,0.00
2013-7-16,95.5,83.0,72.5,79.6,75.8,71.5,99,81,49,30.23,30.16,13,5,13,0.00
2013-7-17,98.1,85.0,72.7,79.5,75.0,69.1,99,75,40,30.26,30.12,11,4,11,0.00
2013-7-18,95.5,84.7,72.9,77.9,73.5,68.3,99,73,42,30.13,29.88,17,7,17,0.00
2013-7-19,94.3,82.0,69.1,76.9,71.9,63.8,99,73,37,29.89,29.75,20,9,20,0.00
2013-7-20,91.9,76.1,57.7,72.5,64.6,57.5,99,73,33,29.92,29.82,24,4,24,0.00
2013-7-21,84.4,74.2,64.9,77.0,70.3,64.7,99,89,61,29.90,29.78,12,3,14,0.01
2013-7-22,92.1,74.1,59.4,79.7,69.5,59.1,99,87,56,29.83,29.65,46,7,46,0.28
2013-7-23,81.1,70.8,61.9,70.1,61.4,54.3,99,75,42,29.95,29.72,18,8,18,0.00
2013-7-24,87.3,68.6,53.1,68.5,57.7,50.4,99,73,30,30.04,29.94,10,2,10,0.00
2013-7-25,87.1,71.6,57.0,71.2,64.1,56.6,99,80,47,30.02,29.90,32,6,32,0.93
2013-7-26,77.7,69.0,60.6,74.8,64.1,57.6,99,86,55,29.98,29.89,27,11,27,0.13
2013-7-27,70.0,59.2,51.8,59.6,53.1,47.2,99,82,48,30.01,29.91,23,9,23,0.00
2013-7-28,72.9,61.3,50.0,59.6,54.5,49.7,99,81,52,30.02,29.88,21,7,21,0.00
2013-7-29,81.0,65.5,47.1,66.1,56.6,46.7,99,77,45,30.11,30.01,12,3,12,0.00
2013-7-30,70.3,66.8,64.6,69.4,65.6,60.7,99,96,85,30.06,29.99,11,3,11,0.02
2013-7-31,83.3,71.6,62.4,72.0,66.9,62.0,99,87,57,30.05,29.95,14,6,14,0.00
2013-8-1,87.4,71.5,57.9,73.5,63.3,54.1,99,79,41,30.03,29.85,23,4,23,0.02
2013-8-2,86.4,71.7,63.7,71.7,66.7,58.3,99,87,45,29.97,29.82,14,5,14,0.06
2013-8-3,81.5,69.0,57.9,65.4,59.4,51.7,99,76,38,30.13,29.96,16,5,16,0.01
2013-8-4,88.2,69.4,52.0,69.5,57.9,50.8,99,73,34,30.17,30.02,11,2,11,0.00
2013-8-5,82.2,69.8,59.4,78.0,68.3,58.9,99,95,80,30.03,29.78,40,5,40,0.15
2013-8-6,91.8,77.1,61.9,79.4,72.3,61.6,99,87,58,29.84,29.73,15,4,15,0.00
2013-8-7,80.1,72.9,64.2,73.5,67.9,63.8,99,85,60,29.96,29.75,24,8,24,0.00
2013-8-8,85.3,69.7,53.8,69.3,62.8,53.5,99,82,46,29.98,29.92,13,3,13,0.00
2013-8-9,83.3,70.1,59.2,72.0,64.3,53.9,99,84,39,30.07,29.95,16,5,16,0.00
2013-8-10,85.3,69.2,51.8,65.4,59.8,51.5,99,76,42,30.16,30.05,12,4,12,0.00
2013-8-11,84.9,72.5,62.6,72.3,67.7,62.3,99,86,63,30.09,29.94,16,5,16,0.01
2013-8-12,83.5,71.6,60.1,73.2,65.1,56.9,99,83,45,29.99,29.91,17,6,17,0.06
2013-8-13,79.2,66.1,51.6,65.1,56.1,47.0,99,75,34,30.13,29.98,15,4,16,0.00
2013-8-14,84.0,62.7,45.3,63.6,52.6,41.9,99,76,25,30.19,30.08,9,2,9,0.00
2013-8-15,83.5,66.0,53.1,63.2,56.9,49.9,99,77,35,30.12,30.05,14,2,14,0.00
2013-8-16,88.3,66.7,49.6,66.1,56.0,48.5,99,75,27,30.16,30.09,8,2,8,0.00
2013-8-17,88.3,68.8,52.2,69.3,57.1,50.0,99,73,29,30.19,30.09,8,2,8,0.00
2013-8-18,85.8,67.6,50.0,66.8,58.6,49.7,99,77,37,30.16,30.03,12,3,12,0.00
2013-8-19,86.7,69.8,53.6,71.1,63.9,52.1,99,84,45,30.06,29.96,13,4,13,0.00
2013-8-20,89.1,75.9,63.9,74.3,69.7,63.6,99,83,55,30.00,29.91,21,7,21,0.00
2013-8-21,88.9,77.3,66.0,79.7,73.1,64.9,99,88,61,29.97,29.90,21,6,21,0.00
2013-8-22,86.5,74.2,65.7,75.8,72.2,65.4,99,94,68,30.06,29.94,12,4,12,0.02
2013-8-23,90.3,73.4,59.2,73.7,66.8,58.9,99,82,52,30.11,30.02,14,3,14,0.00
2013-8-24,90.9,77.3,65.1,78.2,72.0,64.1,99,85,62,30.14,30.04,19,7,19,0.00
2013-8-25,94.1,79.4,68.0,76.6,71.9,65.1,99,80,55,30.14,30.02,18,8,18,0.00
2013-8-26,95.4,80.8,66.9,79.3,73.4,64.8,99,80,52,30.07,29.90,15,6,15,0.00
2013-8-27,97.2,82.8,71.1,77.5,74.3,70.8,99,78,48,29.93,29.80,21,8,21,0.00
2013-8-28,102.0,83.6,72.5,83.7,77.5,72.2,99,84,47,29.96,29.85,9,3,10,0.00
2013-8-29,98.8,82.8,69.6,81.9,75.7,69.4,99,83,40,30.01,29.88,14,4,14,0.00
2013-8-30,99.5,84.9,72.7,82.6,77.5,66.7,99,81,41,29.89,29.72,11,4,11,0.00
2013-8-31,92.7,77.4,66.7,78.7,73.0,66.3,99,88,52,29.82,29.73,15,3,15,0.11
2013-9-1,84.9,74.1,62.8,77.5,67.3,57.1,99,82,41,29.88,29.71,23,8,23,0.00
2013-9-2,76.1,64.7,52.2,63.4,58.0,51.7,99,82,49,30.01,29.88,18,7,18,0.00
2013-9-3,82.8,61.8,44.2,62.1,53.8,43.8,99,80,36,30.08,29.98,9,3,9,0.00
2013-9-4,92.7,70.4,49.8,72.4,61.9,49.6,99,79,41,30.10,30.00,12,3,12,0.00
2013-9-5,94.5,77.0,61.3,75.1,69.0,60.9,99,80,47,30.14,30.06,11,3,11,0.00
2013-9-6,91.9,76.4,62.6,69.6,65.0,58.2,99,72,34,30.11,29.91,14,6,14,0.00
2013-9-7,97.0,78.7,63.5,77.3,70.1,62.7,99,77,40,29.92,29.81,14,4,14,0.00
2013-9-8,85.5,75.4,71.6,75.4,72.7,71.3,99,92,65,29.95,29.83,15,5,15,0.00
2013-9-9,100.8,82.5,68.9,78.0,68.2,58.9,99,69,27,29.83,29.73,23,6,23,0.00
2013-9-10,98.2,81.7,69.1,73.7,65.8,56.8,97,63,28,29.96,29.81,25,8,25,0.00
2013-9-11,90.5,75.7,66.2,71.6,68.0,61.6,99,80,41,30.04,29.94,22,4,22,0.00
2013-9-12,78.8,66.5,52.5,66.3,54.7,43.7,99,71,31,30.12,29.99,24,8,24,0.00
2013-9-13,77.0,59.3,44.8,52.8,47.4,38.0,99,71,27,30.21,30.07,12,4,12,0.00
2013-9-14,78.8,58.9,36.5,50.8,42.8,35.0,99,63,22,30.11,29.88,17,5,17,0.00
2013-9-15,66.4,60.4,54.9,65.3,58.1,47.7,99,93,59,30.18,29.85,16,6,16,0.26
2013-9-16,75.6,58.6,46.0,59.6,53.8,45.6,99,86,45,30.32,30.17,11,2,11,0.00
2013-9-17,66.4,58.8,45.3,65.0,56.9,45.1,99,94,75,30.24,29.97,19,7,19,0.00
2013-9-18,91.6,73.2,62.4,74.5,67.5,59.1,99,85,50,29.98,29.73,23,8,23,0.25
2013-9-19,88.5,74.5,65.7,75.9,70.4,65.0,99,89,53,29.79,29.65,49,8,49,1.36
2013-9-20,67.5,60.4,51.3,67.2,57.3,51.0,99,90,72,29.89,29.77,21,10,21,0.01
2013-9-21,72.0,55.8,44.1,54.9,49.2,43.8,99,82,44,29.95,29.85,20,6,20,0.00
2013-9-22,80.1,59.0,39.4,58.2,49.4,39.1,99,76,37,29.98,29.87,14,4,14,0.00
2013-9-23,78.8,61.3,48.4,55.7,51.3,46.8,99,75,35,29.97,29.85,21,6,21,0.00
2013-9-24,77.9,61.8,45.3,59.5,54.4,44.9,99,80,47,29.91,29.82,12,4,12,0.00
2013-9-25,83.8,64.5,48.9,58.6,54.1,48.7,99,75,34,29.92,29.82,11,3,11,0.00
2013-9-26,87.8,69.6,54.3,64.0,58.6,53.7,99,72,37,29.93,29.85,21,7,21,0.00
2013-9-27,87.3,71.6,59.2,66.0,60.9,57.4,99,73,39,29.98,29.86,24,9,24,0.00
2013-9-28,74.5,62.5,50.0,68.0,59.0,49.7,99,89,70,29.98,29.77,27,9,27,0.20
2013-9-29,77.2,57.8,37.9,59.5,46.4,37.7,99,73,27,30.03,29.89,15,4,15,0.00
2013-9-30,79.2,61.9,46.4,60.2,50.0,43.4,99,71,29,29.90,29.70,24,8,24,0.00
2013-10-1,87.6,69.3,57.7,65.0,56.5,45.9,99,69,29,29.93,29.75,17,6,17,0.00
2013-10-2,88.2,69.2,49.3,64.5,51.5,35.7,99,59,20,30.01,29.83,15,4,15,0.00
2013-10-3,83.7,71.2,63.0,73.7,66.5,62.7,99,87,53,29.83,29.72,21,5,21,0.01
2013-10-4,68.5,67.5,66.6,68.3,67.3,66.3,99,99,99,29.80,29.77,12,4,12,0.00
2013-10-6,51.6,47.7,45.7,48.8,45.0,41.8,99,91,72,29.78,29.66,14,6,14,0.05
2013-10-7,77.7,57.7,41.5,53.2,45.5,29.9,99,73,19,29.99,29.77,23,8,23,0.00
2013-10-8,80.6,61.8,45.0,52.3,45.0,32.3,99,64,19,30.05,29.95,23,8,23,0.00
2013-10-9,79.3,61.3,48.4,53.9,47.6,36.3,99,67,22,30.09,30.00,20,6,20,0.00
2013-10-10,80.1,60.5,40.1,57.3,50.0,39.8,99,74,33,30.07,29.89,17,5,17,0.00
2013-10-11,80.1,66.0,52.7,62.6,56.2,52.4,99,74,41,29.91,29.72,29,9,29,0.00
2013-10-12,70.2,59.7,46.2,62.8,41.8,19.8,93,57,17,30.17,29.76,24,10,24,0.00
2013-10-13,75.2,50.2,34.3,41.9,32.5,12.6,99,61,10,30.39,30.17,14,4,14,0.00
2013-10-14,68.4,51.0,30.9,45.9,38.0,30.7,99,67,33,30.33,29.89,24,7,24,0.00
2013-10-15,59.4,54.1,49.5,59.1,48.9,39.6,99,84,50,29.89,29.74,25,14,25,0.15
2013-10-16,50.7,48.1,46.4,49.7,47.4,45.5,99,97,87,29.92,29.80,24,10,24,0.00
2013-10-17,66.0,50.6,42.4,46.4,39.4,27.2,99,72,25,29.90,29.76,19,5,19,0.00
2013-10-18,54.3,46.1,39.9,45.4,36.9,27.8,99,73,39,29.96,29.82,23,10,23,0.00
2013-10-19,57.0,42.8,34.7,44.1,37.6,33.8,99,84,46,29.88,29.71,24,8,24,0.00
2013-10-20,61.3,45.9,32.9,49.5,40.4,32.4,99,83,56,29.83,29.64,23,7,23,0.00
2013-10-21,50.9,38.5,26.1,39.5,28.4,21.5,99,70,33,29.98,29.82,27,10,27,0.00
2013-10-22,38.3,33.1,23.5,37.9,32.5,23.3,99,98,85,29.98,29.87,10,4,10,0.25
2013-10-23,44.8,36.6,28.6,37.7,30.9,23.4,99,82,47,30.05,29.95,20,8,20,0.00
2013-10-24,44.2,35.8,26.8,29.1,26.0,21.5,97,69,42,30.29,30.03,22,7,22,0.00
2013-10-25,58.8,40.8,22.8,36.8,27.7,18.3,99,66,25,30.33,29.94,27,10,27,0.00
2013-10-26,54.7,43.7,32.2,37.2,30.3,24.3,90,62,32,30.07,29.83,27,12,27,0.00
2013-10-27,61.7,41.7,22.6,35.4,29.4,22.4,99,68,26,30.05,29.83,19,6,19,0.00
2013-10-28,59.9,44.3,36.3,41.4,35.5,30.3,88,72,44,30.27,29.94,17,5,17,0.00
2013-10-29,60.6,48.1,37.2,46.7,39.9,34.9,97,75,48,30.27,30.00,15,7,15,0.00
2013-10-30,59.9,54.5,50.7,58.4,53.8,46.7,99,97,82,30.00,29.60,17,6,17,0.32
2013-10-31,61.7,48.7,41.7,61.4,48.5,41.5,99,99,99,29.61,29.37,21,11,21,0.04
2013-11-1,54.5,45.2,40.3,47.2,42.9,39.8,99,92,63,29.76,29.42,22,10,22,0.01
2013-11-2,53.8,41.9,28.8,42.4,35.3,28.0,99,81,38,30.09,29.76,27,11,27,0.00
2013-11-3,57.6,43.1,25.9,39.2,34.1,25.7,99,74,42,30.15,29.96,25,11,25,0.00
2013-11-4,50.4,47.8,45.3,50.1,44.5,35.9,99,89,67,30.10,29.92,22,9,22,0.01
2013-11-5,57.0,49.7,42.6,56.8,49.5,42.4,99,99,99,30.15,29.72,23,7,23,0.40
2013-11-6,57.6,39.9,27.3,57.3,35.0,23.1,99,85,41,30.19,29.70,28,15,28,0.19
2013-11-7,49.5,34.7,24.8,37.5,30.8,24.6,99,87,47,30.22,30.15,25,9,25,0.00
2013-11-8,52.2,37.3,19.8,40.0,30.3,19.6,99,78,48,30.21,29.73,30,9,30,0.00
2013-11-9,56.7,45.7,32.7,41.5,38.4,32.4,99,77,53,30.19,29.73,36,15,36,0.00
2013-11-10,49.5,38.2,25.5,35.3,31.6,25.3,99,79,49,30.34,30.09,17,7,17,0.00
2013-11-11,44.8,32.3,17.4,37.0,26.6,12.9,99,80,67,30.60,30.01,28,13,28,0.00
2013-11-12,30.9,18.8,10.4,18.2,13.5,8.6,96,80,53,30.74,30.52,17,7,17,0.00
2013-11-13,48.2,31.4,15.4,21.3,15.4,7.2,91,57,20,30.53,29.99,31,11,31,0.00
2013-11-14,54.0,40.9,30.9,31.6,26.5,21.1,78,58,33,30.00,29.82,21,8,21,0.00
2013-11-15,60.4,42.5,29.5,37.3,33.2,27.5,96,73,36,29.88,29.72,15,5,15,0.00
2013-11-16,63.5,52.0,37.8,61.8,51.6,36.2,99,98,94,29.73,29.30,30,12,30,0.02
2013-11-17,60.6,47.2,37.6,60.4,46.7,37.3,99,98,90,29.84,29.23,35,12,35,0.66
2013-11-18,48.9,35.3,24.3,37.7,32.1,24.0,99,89,62,30.23,29.83,29,13,29,0.00
2013-11-19,48.0,34.5,21.0,33.5,28.8,20.8,99,81,53,30.24,30.03,21,9,21,0.00
2013-11-20,40.1,36.9,34.7,37.5,34.6,30.1,99,92,73,30.03,29.89,22,11,22,0.17
2013-11-21,43.7,36.0,26.6,43.1,35.8,26.4,99,99,95,30.29,29.98,24,8,24,0.04
2013-11-22,31.1,24.9,16.2,30.0,22.4,13.5,99,90,76,30.51,30.29,26,12,26,0.00
2013-11-23,21.0,14.0,3.6,16.5,8.4,1.4,98,79,57,30.71,30.46,32,14,32,0.00
2013-11-24,28.8,15.3,1.6,14.5,8.4,0.1,97,75,47,30.68,30.21,21,8,21,0.00
2013-11-25,33.8,27.4,21.7,30.5,24.8,14.5,99,90,72,30.20,30.00,26,12,26,0.00
2013-11-26,30.9,24.0,12.9,27.8,16.0,6.9,99,73,47,30.25,30.02,34,16,38,0.04
2013-11-27,29.5,15.7,6.6,13.4,9.3,4.5,91,77,46,30.30,30.06,15,6,15,0.00
2013-11-28,35.2,20.8,9.0,23.0,15.9,7.2,99,82,58,30.44,30.01,24,7,24,0.00
2013-11-29,35.8,22.3,5.9,25.3,18.0,5.8,99,85,62,30.48,30.18,17,6,17,0.00
2013-11-30,48.7,33.9,24.8,36.6,29.8,22.5,99,86,59,30.19,29.98,16,6,16,0.00
2013-12-1,49.8,34.9,26.8,33.7,31.1,26.6,99,87,47,30.10,29.87,11,4,11,0.00
2013-12-2,41.5,36.2,30.7,40.0,35.2,30.5,99,96,85,29.88,29.54,16,6,17,0.01
2013-12-3,46.8,39.4,36.0,44.0,39.1,35.7,99,99,99,29.60,29.47,11,4,11,0.01
2013-12-4,47.3,37.1,22.8,47.0,36.8,22.5,99,99,98,29.78,29.37,32,11,32,0.06
2013-12-5,23.9,15.0,8.8,22.6,10.9,4.0,99,84,74,30.29,29.76,34,20,34,0.00
2013-12-6,15.8,7.8,1.9,5.5,2.1,-1.8,87,77,58,30.57,30.27,20,12,20,0.00
2013-12-7,15.3,5.7,-3.3,3.7,-1.6,-6.0,88,73,44,30.68,30.48,14,5,14,0.00
2013-12-8,20.7,16.0,10.4,20.5,12.6,3.3,99,87,66,30.48,29.93,14,4,14,0.00
2013-12-9,14.9,1.0,-10.3,14.7,-2.4,-13.9,99,86,65,30.19,29.93,24,9,24,0.00
2013-12-10,18.1,11.8,-4.2,15.3,7.1,-7.2,99,81,66,30.18,29.87,36,14,36,0.00
2013-12-11,16.0,1.8,-12.6,15.8,-2.6,-17.9,99,82,61,30.53,30.16,25,7,25,0.00
2013-12-12,25.2,8.6,-7.2,15.8,4.6,-10.4,99,84,65,30.45,30.09,17,4,17,0.00
2013-12-13,37.6,19.9,4.3,23.1,16.3,4.1,99,87,52,30.09,29.93,15,3,15,0.00
2013-12-14,24.6,19.0,12.7,21.2,17.5,10.7,99,94,82,30.05,29.99,24,10,24,0.00
2013-12-15,13.1,9.5,5.5,11.1,5.2,1.3,96,82,69,30.07,30.01,26,6,26,0.00
2013-12-16,21.6,15.9,10.4,21.3,14.5,8.7,99,94,86,30.03,29.91,18,3,18,0.00
2013-12-17,34.0,24.2,13.6,29.7,21.1,13.1,99,88,73,30.10,29.94,21,3,21,0.02
2013-12-18,46.2,27.6,10.8,34.7,23.2,9.9,99,85,60,30.08,29.66,1,0,1,0.00
2013-12-19,41.4,30.2,21.0,33.3,28.5,20.8,99,94,73,29.83,29.71,1,0,1,0.00
2013-12-20,30.4,24.6,22.8,30.1,24.4,22.6,99,99,99,29.82,29.72,0,0,0,0.00
2013-12-21,27.1,25.0,22.6,26.9,24.8,22.4,99,99,99,29.82,29.66,1,0,1,0.00
2013-12-22,27.0,18.8,1.8,26.7,17.8,-1.3,99,95,88,30.19,29.66,1,0,1,0.00
2013-12-23,1.6,-4.2,-13.9,-1.2,-8.7,-17.6,88,80,70,30.45,30.19,1,0,1,0.00
2013-12-24,12.7,-3.7,-21.3,12.6,-8.5,-25.3,99,79,62,30.47,30.13,1,0,1,0.00
2013-12-25,27.3,19.6,10.4,26.9,19.2,10.1,99,98,88,30.15,30.06,1,0,1,0.00
2013-12-26,42.1,22.3,10.9,31.8,20.4,10.8,99,93,55,30.15,30.02,0,0,0,0.01
2013-12-27,41.0,27.7,14.9,31.8,24.1,14.7,99,87,69,30.17,29.97,1,0,1,0.01
2013-12-28,45.9,35.5,25.0,34.4,30.6,23.0,99,83,63,30.01,29.72,1,0,1,0.00
2013-12-29,32.0,10.1,-7.6,31.8,6.6,-13.2,99,85,72,30.25,29.77,1,0,1,0.04
2013-12-30,6.1,-2.9,-14.1,4.9,-6.2,-17.8,96,85,67,30.25,30.10,0,0,0,0.00
2013-12-31,10.6,2.3,-13.0,8.2,-0.4,-16.5,96,88,79,30.26,30.14,1,0,1,0.00
2014-1-1,12.0,7.8,4.1,6.0,3.1,1.0,89,81,71,30.26,30.16,72,0,72,0.00
2014-1-2,7.9,1.8,-14.1,2.2,-3.9,-17.8,87,76,61,30.40,30.21,1,0,1,0.00